Year,Month,Day,Hour,Minute,Value (Times are PST for temperature in C)
2017,05,02,00,01,7.00
2017,05,02,00,02,7.00
2017,05,02,00,03,7.00
2017,05,02,00,04,7.00
2017,05,02,00,06,6.90
2017,05,02,00,07,6.90
2017,05,02,00,09,6.90
2017,05,02,00,10,6.90
2017,05,02,00,11,6.90
2017,05,02,00,12,6.90
2017,05,02,00,13,6.90
2017,05,02,00,14,6.90
2017,05,02,00,15,6.90
2017,05,02,00,16,6.90
2017,05,02,00,17,6.90
2017,05,02,00,18,6.90
2017,05,02,00,19,7.00
2017,05,02,00,20,7.00
2017,05,02,00,21,7.00
2017,05,02,00,22,7.00
2017,05,02,00,23,7.00
2017,05,02,00,24,7.00
2017,05,02,00,25,7.00
2017,05,02,00,26,7.00
2017,05,02,00,27,7.00
2017,05,02,00,28,7.10
2017,05,02,00,29,7.10
2017,05,02,00,30,7.10
2017,05,02,00,31,7.10
2017,05,02,00,32,7.20
2017,05,02,00,33,7.20
2017,05,02,00,34,7.20
2017,05,02,00,35,7.20
2017,05,02,00,36,7.30
2017,05,02,00,37,7.30
2017,05,02,00,38,7.30
2017,05,02,00,39,7.30
2017,05,02,00,40,7.30
2017,05,02,00,41,7.30
2017,05,02,00,42,7.30
2017,05,02,00,43,7.30
2017,05,02,00,44,7.30
2017,05,02,00,45,7.30
2017,05,02,00,46,7.30
2017,05,02,00,47,7.30
2017,05,02,00,48,7.30
2017,05,02,00,49,7.30
2017,05,02,00,50,7.30
2017,05,02,00,51,7.30
2017,05,02,00,52,7.30
2017,05,02,00,53,7.30
2017,05,02,00,54,7.30
2017,05,02,00,55,7.30
2017,05,02,00,56,7.30
2017,05,02,00,57,7.30
2017,05,02,00,58,7.30
2017,05,02,00,59,7.30
2017,05,02,01,00,7.30
2017,05,02,01,01,7.30
2017,05,02,01,02,7.30
2017,05,02,01,03,7.30
2017,05,02,01,04,7.30
2017,05,02,01,05,7.30
2017,05,02,01,06,7.30
2017,05,02,01,07,7.30
2017,05,02,01,08,7.30
2017,05,02,01,09,7.30
2017,05,02,01,10,7.30
2017,05,02,01,11,7.30
2017,05,02,01,12,7.30
2017,05,02,01,13,7.30
2017,05,02,01,14,7.30
2017,05,02,01,15,7.40
2017,05,02,01,16,7.40
2017,05,02,01,17,7.40
2017,05,02,01,18,7.40
2017,05,02,01,19,7.40
2017,05,02,01,20,7.40
2017,05,02,01,21,7.40
2017,05,02,01,22,7.40
2017,05,02,01,23,7.40
2017,05,02,01,24,7.40
2017,05,02,01,25,7.40
2017,05,02,01,26,7.40
2017,05,02,01,27,7.40
2017,05,02,01,28,7.40
2017,05,02,01,29,7.40
2017,05,02,01,30,7.30
2017,05,02,01,32,7.30
2017,05,02,01,33,7.30
2017,05,02,01,34,7.30
2017,05,02,01,36,7.30
2017,05,02,01,37,7.30
2017,05,02,01,38,7.30
2017,05,02,01,39,7.30
2017,05,02,01,41,7.30
2017,05,02,01,42,7.30
2017,05,02,01,43,7.30
2017,05,02,01,44,7.30
2017,05,02,01,46,7.30
2017,05,02,01,47,7.30
2017,05,02,01,48,7.30
2017,05,02,01,49,7.30
2017,05,02,01,51,7.30
2017,05,02,01,52,7.20
2017,05,02,01,53,7.20
2017,05,02,01,54,7.20
2017,05,02,01,56,7.20
2017,05,02,01,57,7.20
2017,05,02,01,58,7.20
2017,05,02,01,59,7.20
2017,05,02,02,01,7.20
2017,05,02,02,02,7.20
2017,05,02,02,03,7.20
2017,05,02,02,04,7.20
2017,05,02,02,06,7.20
2017,05,02,02,07,7.20
2017,05,02,02,08,7.20
2017,05,02,02,09,7.20
2017,05,02,02,11,7.20
2017,05,02,02,12,7.20
2017,05,02,02,13,7.20
2017,05,02,02,14,7.20
2017,05,02,02,16,7.20
2017,05,02,02,17,7.30
2017,05,02,02,18,7.30
2017,05,02,02,19,7.30
2017,05,02,02,21,7.30
2017,05,02,02,22,7.30
2017,05,02,02,23,7.30
2017,05,02,02,24,7.30
2017,05,02,02,26,7.30
2017,05,02,02,27,7.30
2017,05,02,02,28,7.30
2017,05,02,02,29,7.30
2017,05,02,02,31,7.30
2017,05,02,02,32,7.30
2017,05,02,02,33,7.30
2017,05,02,02,34,7.30
2017,05,02,02,36,7.30
2017,05,02,02,37,7.30
2017,05,02,02,38,7.30
2017,05,02,02,39,7.30
2017,05,02,02,41,7.30
2017,05,02,02,42,7.30
2017,05,02,02,43,7.30
2017,05,02,02,44,7.30
2017,05,02,02,45,7.30
2017,05,02,02,46,7.30
2017,05,02,02,47,7.30
2017,05,02,02,48,7.30
2017,05,02,02,49,7.30
2017,05,02,02,51,7.40
2017,05,02,02,52,7.40
2017,05,02,02,53,7.40
2017,05,02,02,54,7.50
2017,05,02,02,55,7.50
2017,05,02,02,56,7.50
2017,05,02,02,57,7.50
2017,05,02,02,58,7.50
2017,05,02,02,59,7.60
2017,05,02,03,00,7.60
2017,05,02,03,01,7.60
2017,05,02,03,02,7.60
2017,05,02,03,03,7.60
2017,05,02,03,04,7.60
2017,05,02,03,05,7.60
2017,05,02,03,06,7.60
2017,05,02,03,07,7.60
2017,05,02,03,08,7.60
2017,05,02,03,09,7.60
2017,05,02,03,10,7.60
2017,05,02,03,11,7.60
2017,05,02,03,12,7.60
2017,05,02,03,13,7.60
2017,05,02,03,14,7.60
2017,05,02,03,15,7.60
2017,05,02,03,16,7.70
2017,05,02,03,17,7.70
2017,05,02,03,18,7.70
2017,05,02,03,19,7.70
2017,05,02,03,20,7.70
2017,05,02,03,21,7.70
2017,05,02,03,22,7.70
2017,05,02,03,23,7.80
2017,05,02,03,24,7.80
2017,05,02,03,25,7.80
2017,05,02,03,26,7.80
2017,05,02,03,27,7.80
2017,05,02,03,28,7.80
2017,05,02,03,29,7.80
2017,05,02,03,30,7.80
2017,05,02,03,31,7.80
2017,05,02,03,32,7.80
2017,05,02,03,33,7.80
2017,05,02,03,34,7.80
2017,05,02,04,29,7.90
2017,05,02,04,31,7.90
2017,05,02,04,32,7.90
2017,05,02,04,33,7.90
2017,05,02,04,34,7.90
2017,05,02,04,35,7.90
2017,05,02,04,36,7.90
2017,05,02,04,37,7.90
2017,05,02,04,38,7.90
2017,05,02,04,39,7.90
2017,05,02,04,40,7.90
2017,05,02,04,41,7.90
2017,05,02,04,42,7.90
2017,05,02,04,43,7.90
2017,05,02,04,44,7.90
2017,05,02,04,45,7.90
2017,05,02,04,46,7.90
2017,05,02,04,47,8.00
2017,05,02,04,48,7.90
2017,05,02,04,49,7.90
2017,05,02,04,50,7.90
2017,05,02,04,51,7.90
2017,05,02,04,52,7.90
2017,05,02,04,53,7.90
2017,05,02,04,54,7.90
2017,05,02,04,55,7.90
2017,05,02,04,56,7.90
2017,05,02,04,57,7.90
2017,05,02,04,58,7.90
2017,05,02,04,59,7.90
2017,05,02,05,00,7.90
2017,05,02,05,01,7.90
2017,05,02,05,02,7.90
2017,05,02,05,03,7.90
2017,05,02,05,04,7.90
2017,05,02,05,05,7.90
2017,05,02,05,06,7.90
2017,05,02,05,07,7.90
2017,05,02,05,08,7.90
2017,05,02,05,09,7.90
2017,05,02,05,10,7.90
2017,05,02,05,11,7.90
2017,05,02,05,12,7.90
2017,05,02,05,13,7.90
2017,05,02,05,14,7.90
2017,05,02,05,15,7.90
2017,05,02,05,16,7.90
2017,05,02,05,17,7.90
2017,05,02,05,18,7.90
2017,05,02,05,19,7.90
2017,05,02,05,20,7.90
2017,05,02,05,21,7.90
2017,05,02,05,22,7.90
2017,05,02,05,23,7.90
2017,05,02,05,24,7.90
2017,05,02,05,25,7.80
2017,05,02,05,26,7.80
2017,05,02,05,27,7.80
2017,05,02,05,28,7.80
2017,05,02,05,29,7.80
2017,05,02,05,30,7.80
2017,05,02,05,31,7.80
2017,05,02,05,32,7.80
2017,05,02,05,33,7.80
2017,05,02,05,34,7.80
2017,05,02,05,35,7.80
2017,05,02,05,36,7.80
2017,05,02,05,37,7.80
2017,05,02,05,38,7.80
2017,05,02,05,39,7.80
2017,05,02,05,40,7.80
2017,05,02,05,41,7.80
2017,05,02,05,42,7.80
2017,05,02,05,43,7.80
2017,05,02,05,44,7.80
2017,05,02,05,45,7.80
2017,05,02,05,47,7.70
2017,05,02,05,48,7.70
2017,05,02,05,49,7.70
2017,05,02,05,51,7.70
2017,05,02,05,52,7.70
2017,05,02,05,53,7.70
2017,05,02,05,54,7.70
2017,05,02,05,56,7.70
2017,05,02,05,57,7.70
2017,05,02,05,58,7.70
2017,05,02,05,59,7.70
2017,05,02,06,01,7.70
2017,05,02,06,02,7.70
2017,05,02,06,03,7.70
2017,05,02,06,04,7.70
2017,05,02,06,06,7.70
2017,05,02,06,07,7.70
2017,05,02,06,08,7.70
2017,05,02,06,09,7.70
2017,05,02,06,11,7.70
2017,05,02,06,12,7.70
2017,05,02,06,13,7.70
2017,05,02,06,14,7.70
2017,05,02,06,16,7.70
2017,05,02,06,17,7.70
2017,05,02,06,18,7.70
2017,05,02,06,19,7.70
2017,05,02,06,21,7.70
2017,05,02,06,22,7.70
2017,05,02,06,23,7.70
2017,05,02,06,24,7.70
2017,05,02,06,26,7.70
2017,05,02,06,27,7.70
2017,05,02,06,28,7.70
2017,05,02,06,29,7.70
2017,05,02,06,31,7.70
2017,05,02,06,32,7.70
2017,05,02,06,33,7.70
2017,05,02,06,34,7.70
2017,05,02,06,36,7.70
2017,05,02,06,37,7.80
2017,05,02,06,38,7.80
2017,05,02,06,39,7.80
2017,05,02,06,41,7.80
2017,05,02,06,42,7.80
2017,05,02,06,43,7.80
2017,05,02,06,44,7.80
2017,05,02,06,46,7.80
2017,05,02,06,47,7.80
2017,05,02,06,48,7.80
2017,05,02,06,49,7.80
2017,05,02,06,51,7.90
2017,05,02,06,52,7.90
2017,05,02,06,53,7.90
2017,05,02,06,54,7.90
2017,05,02,06,56,7.90
2017,05,02,06,57,7.90
2017,05,02,06,58,7.90
2017,05,02,06,59,7.90
2017,05,02,07,01,8.00
2017,05,02,07,02,8.00
2017,05,02,07,03,8.00
2017,05,02,07,04,8.00
2017,05,02,07,06,8.10
2017,05,02,07,07,8.10
2017,05,02,07,08,8.10
2017,05,02,07,09,8.20
2017,05,02,07,10,8.20
2017,05,02,07,11,8.20
2017,05,02,07,12,8.20
2017,05,02,07,13,8.20
2017,05,02,07,14,8.20
2017,05,02,07,15,8.20
2017,05,02,07,16,8.30
2017,05,02,07,17,8.30
2017,05,02,07,18,8.30
2017,05,02,07,19,8.30
2017,05,02,07,20,8.30
2017,05,02,07,21,8.30
2017,05,02,07,22,8.30
2017,05,02,07,23,8.40
2017,05,02,07,24,8.40
2017,05,02,07,25,8.40
2017,05,02,07,26,8.40
2017,05,02,07,27,8.40
2017,05,02,07,28,8.40
2017,05,02,07,29,8.40
2017,05,02,07,30,8.40
2017,05,02,07,31,8.40
2017,05,02,07,32,8.40
2017,05,02,07,33,8.40
2017,05,02,07,34,8.40
2017,05,02,07,35,8.50
2017,05,02,07,36,8.50
2017,05,02,07,37,8.50
2017,05,02,07,38,8.40
2017,05,02,07,39,8.40
2017,05,02,07,40,8.40
2017,05,02,07,41,8.50
2017,05,02,07,42,8.50
2017,05,02,07,43,8.50
2017,05,02,07,44,8.50
2017,05,02,07,45,8.60
2017,05,02,07,46,8.60
2017,05,02,07,47,8.60
2017,05,02,07,48,8.60
2017,05,02,07,49,8.70
2017,05,02,07,50,8.70
2017,05,02,07,51,8.70
2017,05,02,07,52,8.70
2017,05,02,07,53,8.70
2017,05,02,07,54,8.70
2017,05,02,07,55,8.70
2017,05,02,07,56,8.70
2017,05,02,07,57,8.70
2017,05,02,07,58,8.70
2017,05,02,07,59,8.80
2017,05,02,08,00,8.80
2017,05,02,08,01,8.80
2017,05,02,08,02,8.80
2017,05,02,08,03,8.90
2017,05,02,08,04,8.90
2017,05,02,08,05,8.90
2017,05,02,08,06,8.90
2017,05,02,08,07,8.90
2017,05,02,08,08,9.00
2017,05,02,08,09,9.00
2017,05,02,08,10,9.00
2017,05,02,08,11,9.10
2017,05,02,08,12,9.10
2017,05,02,08,13,9.20
2017,05,02,08,14,9.20
2017,05,02,08,15,9.20
2017,05,02,08,16,9.20
2017,05,02,08,18,9.30
2017,05,02,08,19,9.30
2017,05,02,08,21,9.40
2017,05,02,08,22,9.40
2017,05,02,08,23,9.40
2017,05,02,08,24,9.50
2017,05,02,08,26,9.50
2017,05,02,08,27,9.60
2017,05,02,08,28,9.60
2017,05,02,08,29,9.60
2017,05,02,08,31,9.60
2017,05,02,08,32,9.60
2017,05,02,08,33,9.60
2017,05,02,08,34,9.70
2017,05,02,08,36,9.70
2017,05,02,08,37,9.70
2017,05,02,08,38,9.70
2017,05,02,08,39,9.80
2017,05,02,08,41,9.90
2017,05,02,08,42,9.90
2017,05,02,08,43,9.90
2017,05,02,08,44,9.90
2017,05,02,08,46,9.90
2017,05,02,08,47,9.90
2017,05,02,08,48,9.90
2017,05,02,08,49,9.90
2017,05,02,08,51,9.90
2017,05,02,08,52,9.90
2017,05,02,08,53,9.90
2017,05,02,08,54,9.90
2017,05,02,08,56,9.90
2017,05,02,08,57,10.10
2017,05,02,08,58,10.10
2017,05,02,08,59,10.10
2017,05,02,09,01,10.20
2017,05,02,09,02,10.30
2017,05,02,09,03,10.30
2017,05,02,09,04,10.40
2017,05,02,09,06,10.40
2017,05,02,09,07,10.60
2017,05,02,09,08,10.60
2017,05,02,09,09,10.60
2017,05,02,09,11,10.70
2017,05,02,09,12,10.70
2017,05,02,09,13,10.70
2017,05,02,09,14,10.70
2017,05,02,09,16,10.70
2017,05,02,09,17,10.80
2017,05,02,09,18,10.80
2017,05,02,09,19,10.80
2017,05,02,09,21,10.80
2017,05,02,09,22,10.90
2017,05,02,09,23,10.90
2017,05,02,09,24,10.90
2017,05,02,09,26,11.10
2017,05,02,09,27,11.10
2017,05,02,09,28,11.10
2017,05,02,09,29,11.10
2017,05,02,09,31,11.20
2017,05,02,09,32,11.20
2017,05,02,09,33,11.20
2017,05,02,09,34,11.20
2017,05,02,09,36,11.30
2017,05,02,09,37,11.40
2017,05,02,09,38,11.40
2017,05,02,09,39,11.40
2017,05,02,09,41,11.40
2017,05,02,09,42,11.60
2017,05,02,09,43,11.60
2017,05,02,09,44,11.60
2017,05,02,09,45,11.60
2017,05,02,09,46,11.60
2017,05,02,09,47,11.70
2017,05,02,09,48,11.70
2017,05,02,09,49,11.70
2017,05,02,09,50,11.70
2017,05,02,09,51,11.70
2017,05,02,09,52,11.70
2017,05,02,09,53,11.70
2017,05,02,09,54,11.70
2017,05,02,09,55,11.70
2017,05,02,09,56,11.60
2017,05,02,09,57,11.70
2017,05,02,09,58,11.70
2017,05,02,09,59,11.70
2017,05,02,10,00,11.80
2017,05,02,10,01,11.80
2017,05,02,10,02,11.80
2017,05,02,10,03,11.80
2017,05,02,10,04,11.80
2017,05,02,10,05,11.80
2017,05,02,10,06,11.90
2017,05,02,10,07,11.90
2017,05,02,10,08,11.90
2017,05,02,10,09,11.90
2017,05,02,10,10,11.90
2017,05,02,10,11,11.90
2017,05,02,10,12,11.90
2017,05,02,10,13,11.90
2017,05,02,10,14,11.90
2017,05,02,10,15,11.90
2017,05,02,10,16,11.90
2017,05,02,10,17,11.90
2017,05,02,10,18,11.90
2017,05,02,10,19,11.90
2017,05,02,10,20,11.90
2017,05,02,10,21,11.90
2017,05,02,10,22,11.90
2017,05,02,10,23,11.90
2017,05,02,10,24,11.90
2017,05,02,10,25,11.80
2017,05,02,10,26,11.80
2017,05,02,10,27,11.80
2017,05,02,10,28,11.80
2017,05,02,10,29,11.80
2017,05,02,10,30,11.70
2017,05,02,10,31,11.70
2017,05,02,10,32,11.70
2017,05,02,10,33,11.70
2017,05,02,10,34,11.80
2017,05,02,10,35,11.80
2017,05,02,10,36,11.80
2017,05,02,10,37,11.80
2017,05,02,10,38,11.90
2017,05,02,10,39,11.90
2017,05,02,10,40,12.00
2017,05,02,10,41,12.10
2017,05,02,10,42,12.10
2017,05,02,10,43,12.10
2017,05,02,10,44,12.10
2017,05,02,10,45,12.20
2017,05,02,10,46,12.20
2017,05,02,10,47,12.20
2017,05,02,10,48,12.20
2017,05,02,10,49,12.20
2017,05,02,10,50,12.30
2017,05,02,10,51,12.30
2017,05,02,10,52,12.30
2017,05,02,10,53,12.40
2017,05,02,10,54,12.40
2017,05,02,10,55,12.50
2017,05,02,10,56,12.60
2017,05,02,10,57,12.60
2017,05,02,10,58,12.70
2017,05,02,10,59,12.70
2017,05,02,11,00,12.80
2017,05,02,11,01,12.80
2017,05,02,11,02,12.80
2017,05,02,11,03,12.80
2017,05,02,11,04,12.90
2017,05,02,11,05,12.90
2017,05,02,11,06,12.90
2017,05,02,11,07,13.00
2017,05,02,11,08,13.00
2017,05,02,11,09,13.00
2017,05,02,11,10,13.00
2017,05,02,11,12,13.00
2017,05,02,11,13,13.00
2017,05,02,11,14,13.00
2017,05,02,11,16,13.10
2017,05,02,11,17,13.10
2017,05,02,11,18,13.20
2017,05,02,11,19,13.20
2017,05,02,11,21,13.30
2017,05,02,11,22,13.30
2017,05,02,11,23,13.30
2017,05,02,11,24,13.30
2017,05,02,11,26,13.50
2017,05,02,11,27,13.50
2017,05,02,11,28,13.60
2017,05,02,11,29,13.70
2017,05,02,11,31,13.70
2017,05,02,11,32,13.80
2017,05,02,11,33,13.90
2017,05,02,11,34,13.90
2017,05,02,11,36,14.10
2017,05,02,11,37,14.10
2017,05,02,11,38,14.10
2017,05,02,11,39,14.10
2017,05,02,11,41,14.20
2017,05,02,11,42,14.20
2017,05,02,11,43,14.20
2017,05,02,11,44,14.30
2017,05,02,11,46,14.40
2017,05,02,11,47,14.50
2017,05,02,11,48,14.50
2017,05,02,11,49,14.50
2017,05,02,11,51,14.60
2017,05,02,11,52,14.60
2017,05,02,11,53,14.60
2017,05,02,11,54,14.60
2017,05,02,11,56,14.60
2017,05,02,11,57,14.50
2017,05,02,11,58,14.50
2017,05,02,11,59,14.40
2017,05,02,12,01,14.30
2017,05,02,12,02,14.20
2017,05,02,12,03,14.20
2017,05,02,12,04,14.20
2017,05,02,12,06,14.10
2017,05,02,12,07,14.10
2017,05,02,12,08,14.00
2017,05,02,12,09,14.00
2017,05,02,12,11,14.00
2017,05,02,12,12,14.00
2017,05,02,12,13,14.00
2017,05,02,12,14,14.00
2017,05,02,12,16,14.00
2017,05,02,12,17,14.00
2017,05,02,12,18,14.00
2017,05,02,12,19,13.90
2017,05,02,12,21,13.80
2017,05,02,12,22,13.80
2017,05,02,12,23,13.70
2017,05,02,12,24,13.70
2017,05,02,12,26,13.70
2017,05,02,12,27,13.60
2017,05,02,12,28,13.60
2017,05,02,12,29,13.60
2017,05,02,12,31,13.60
2017,05,02,12,32,13.60
2017,05,02,12,33,13.60
2017,05,02,12,34,13.60
2017,05,02,12,36,13.60
2017,05,02,12,37,13.60
2017,05,02,12,38,13.60
2017,05,02,12,39,13.60
2017,05,02,12,40,13.60
2017,05,02,12,41,13.60
2017,05,02,12,42,13.60
2017,05,02,12,43,13.60
2017,05,02,12,44,13.60
2017,05,02,12,45,13.60
2017,05,02,12,46,13.60
2017,05,02,12,47,13.60
2017,05,02,12,48,13.60
2017,05,02,12,49,13.50
2017,05,02,12,50,13.50
2017,05,02,12,51,13.40
2017,05,02,12,52,13.40
2017,05,02,12,53,13.30
2017,05,02,12,54,13.30
2017,05,02,12,55,13.30
2017,05,02,12,56,13.30
2017,05,02,12,57,13.30
2017,05,02,12,58,13.30
2017,05,02,12,59,13.30
2017,05,02,13,00,13.30
2017,05,02,13,01,13.30
2017,05,02,13,02,13.20
2017,05,02,13,03,13.20
2017,05,02,13,04,13.20
2017,05,02,13,05,13.10
2017,05,02,13,06,13.00
2017,05,02,13,07,12.90
2017,05,02,13,08,12.80
2017,05,02,13,09,12.80
2017,05,02,13,10,12.80
2017,05,02,13,11,12.70
2017,05,02,13,12,12.60
2017,05,02,13,13,12.60
2017,05,02,13,14,12.50
2017,05,02,13,15,12.50
2017,05,02,13,16,12.50
2017,05,02,13,17,12.50
2017,05,02,13,18,12.50
2017,05,02,13,19,12.50
2017,05,02,13,20,12.50
2017,05,02,13,21,12.50
2017,05,02,13,22,12.50
2017,05,02,13,23,12.50
2017,05,02,13,24,12.50
2017,05,02,13,25,12.40
2017,05,02,13,26,12.40
2017,05,02,13,27,12.30
2017,05,02,13,28,12.30
2017,05,02,13,29,12.30
2017,05,02,13,30,12.30
2017,05,02,13,31,12.30
2017,05,02,13,32,12.30
2017,05,02,13,33,12.30
2017,05,02,13,34,12.30
2017,05,02,13,35,12.20
2017,05,02,13,36,12.20
2017,05,02,13,37,12.10
2017,05,02,13,38,12.10
2017,05,02,13,39,12.00
2017,05,02,13,40,12.00
2017,05,02,13,41,12.00
2017,05,02,13,42,11.90
2017,05,02,13,43,11.90
2017,05,02,13,44,11.80
2017,05,02,13,45,11.80
2017,05,02,13,46,11.80
2017,05,02,13,47,11.80
2017,05,02,13,48,11.80
2017,05,02,13,49,11.80
2017,05,02,13,50,11.80
2017,05,02,13,51,11.70
2017,05,02,13,52,11.70
2017,05,02,13,53,11.70
2017,05,02,13,54,11.70
2017,05,02,13,55,11.70
2017,05,02,13,56,11.70
2017,05,02,13,57,11.70
2017,05,02,13,58,11.80
2017,05,02,13,59,11.80
2017,05,02,14,00,11.80
2017,05,02,14,01,11.80
2017,05,02,14,02,11.80
2017,05,02,14,03,11.80
2017,05,02,14,04,11.80
2017,05,02,14,05,11.80
2017,05,02,14,07,11.80
2017,05,02,14,08,11.80
2017,05,02,14,09,11.80
2017,05,02,14,11,11.80
2017,05,02,14,12,11.80
2017,05,02,14,13,11.80
2017,05,02,14,14,11.80
2017,05,02,14,16,11.80
2017,05,02,14,17,11.80
2017,05,02,14,18,11.80
2017,05,02,14,19,11.90
2017,05,02,14,21,11.90
2017,05,02,14,22,11.90
2017,05,02,14,23,11.90
2017,05,02,14,24,12.00
2017,05,02,14,26,12.10
2017,05,02,14,27,12.10
2017,05,02,14,28,12.20
2017,05,02,14,29,12.20
2017,05,02,14,31,12.30
2017,05,02,14,32,12.30
2017,05,02,14,33,12.20
2017,05,02,14,34,12.20
2017,05,02,14,36,12.20
2017,05,02,14,37,12.20
2017,05,02,14,38,12.20
2017,05,02,14,39,12.30
2017,05,02,14,41,12.30
2017,05,02,14,42,12.30
2017,05,02,14,43,12.30
2017,05,02,14,44,12.30
2017,05,02,14,46,12.30
2017,05,02,14,47,12.30
2017,05,02,14,48,12.30
2017,05,02,14,49,12.30
2017,05,02,14,51,12.30
2017,05,02,14,52,12.30
2017,05,02,14,53,12.30
2017,05,02,14,54,12.30
2017,05,02,14,56,12.40
2017,05,02,14,57,12.40
2017,05,02,14,58,12.40
2017,05,02,14,59,12.40
2017,05,02,15,01,12.50
2017,05,02,15,02,12.50
2017,05,02,15,03,12.50
2017,05,02,15,04,12.50
2017,05,02,15,06,12.50
2017,05,02,15,07,12.50
2017,05,02,15,08,12.50
2017,05,02,15,09,12.50
2017,05,02,15,11,12.60
2017,05,02,15,12,12.60
2017,05,02,15,13,12.60
2017,05,02,15,14,12.50
2017,05,02,15,16,12.50
2017,05,02,15,17,12.50
2017,05,02,15,18,12.60
2017,05,02,15,19,12.60
2017,05,02,15,21,12.60
2017,05,02,15,22,12.60
2017,05,02,15,23,12.70
2017,05,02,15,24,12.70
2017,05,02,15,26,12.80
2017,05,02,15,27,12.80
2017,05,02,15,28,12.80
2017,05,02,15,29,12.90
2017,05,02,15,31,13.00
2017,05,02,15,32,13.00
2017,05,02,15,33,13.00
2017,05,02,15,34,13.10
2017,05,02,15,36,13.10
2017,05,02,15,37,13.20
2017,05,02,15,38,13.20
2017,05,02,15,39,13.30
2017,05,02,15,40,13.30
2017,05,02,15,41,13.30
2017,05,02,15,42,13.30
2017,05,02,15,43,13.30
2017,05,02,15,44,13.40
2017,05,02,15,45,13.40
2017,05,02,15,46,13.30
2017,05,02,15,47,13.30
2017,05,02,15,48,13.30
2017,05,02,15,49,13.30
2017,05,02,15,50,13.30
2017,05,02,15,51,13.20
2017,05,02,15,52,13.20
2017,05,02,15,53,13.20
2017,05,02,15,54,13.20
2017,05,02,15,55,13.20
2017,05,02,15,56,13.20
2017,05,02,15,57,13.30
2017,05,02,15,58,13.30
2017,05,02,15,59,13.30
2017,05,02,16,00,13.30
2017,05,02,16,01,13.30
2017,05,02,16,02,13.30
2017,05,02,16,03,13.30
2017,05,02,16,04,13.30
2017,05,02,16,05,13.30
2017,05,02,16,06,13.30
2017,05,02,16,07,13.30
2017,05,02,16,08,13.30
2017,05,02,16,09,13.20
2017,05,02,16,10,13.20
2017,05,02,16,11,13.10
2017,05,02,16,12,13.00
2017,05,02,16,13,12.90
2017,05,02,16,14,12.80
2017,05,02,16,15,12.80
2017,05,02,16,16,12.80
2017,05,02,16,17,12.80
2017,05,02,16,18,12.70
2017,05,02,16,19,12.70
2017,05,02,16,20,12.60
2017,05,02,16,21,12.60
2017,05,02,16,22,12.60
2017,05,02,16,23,12.50
2017,05,02,16,24,12.50
2017,05,02,16,25,12.50
2017,05,02,16,26,12.50
2017,05,02,16,27,12.50
2017,05,02,16,28,12.50
2017,05,02,16,29,12.50
2017,05,02,16,30,12.40
2017,05,02,16,31,12.40
2017,05,02,16,32,12.40
2017,05,02,16,33,12.40
2017,05,02,16,34,12.40
2017,05,02,16,35,12.30
2017,05,02,16,36,12.30
2017,05,02,16,37,12.30
2017,05,02,16,38,12.30
2017,05,02,16,39,12.30
2017,05,02,16,40,12.30
2017,05,02,16,41,12.30
2017,05,02,16,42,12.30
2017,05,02,16,43,12.30
2017,05,02,16,44,12.30
2017,05,02,16,45,12.30
2017,05,02,16,46,12.30
2017,05,02,16,47,12.30
2017,05,02,16,48,12.20
2017,05,02,16,49,12.20
2017,05,02,16,50,12.20
2017,05,02,16,51,12.20
2017,05,02,16,52,12.20
2017,05,02,16,53,12.20
2017,05,02,16,54,12.20
2017,05,02,16,55,12.20
2017,05,02,16,56,12.20
2017,05,02,16,57,12.20
2017,05,02,16,59,12.20
2017,05,02,17,00,12.30
2017,05,02,17,02,12.30
2017,05,02,17,03,12.20
2017,05,02,17,04,12.20
2017,05,02,17,06,12.20
2017,05,02,17,07,12.10
2017,05,02,17,08,12.10
2017,05,02,17,09,12.10
2017,05,02,17,11,12.10
2017,05,02,17,12,12.00
2017,05,02,17,13,12.00
2017,05,02,17,14,12.00
2017,05,02,17,16,12.00
2017,05,02,17,17,12.00
2017,05,02,17,18,12.00
2017,05,02,17,19,11.90
2017,05,02,17,21,11.90
2017,05,02,17,22,11.90
2017,05,02,17,23,11.90
2017,05,02,17,24,11.90
2017,05,02,17,26,11.90
2017,05,02,17,27,11.90
2017,05,02,17,28,11.90
2017,05,02,17,29,11.90
2017,05,02,17,31,11.90
2017,05,02,17,32,11.90
2017,05,02,17,33,11.90
2017,05,02,17,34,11.90
2017,05,02,17,36,11.90
2017,05,02,17,37,11.90
2017,05,02,17,38,11.90
2017,05,02,17,39,11.90
2017,05,02,17,41,11.90
2017,05,02,17,42,12.00
2017,05,02,17,43,12.00
2017,05,02,17,44,12.00
2017,05,02,17,46,12.00
2017,05,02,17,47,12.00
2017,05,02,17,48,12.10
2017,05,02,17,49,12.10
2017,05,02,17,51,12.10
2017,05,02,17,52,12.10
2017,05,02,17,53,12.10
2017,05,02,17,54,12.10
2017,05,02,17,56,12.20
2017,05,02,17,57,12.20
2017,05,02,17,58,12.20
2017,05,02,17,59,12.30
2017,05,02,18,01,12.20
2017,05,02,18,02,12.20
2017,05,02,18,03,12.20
2017,05,02,18,04,12.20
2017,05,02,18,06,12.10
2017,05,02,18,07,12.10
2017,05,02,18,08,12.10
2017,05,02,18,09,12.00
2017,05,02,18,11,12.00
2017,05,02,18,12,11.90
2017,05,02,18,13,11.90
2017,05,02,18,14,11.90
2017,05,02,18,16,11.90
2017,05,02,18,17,11.90
2017,05,02,18,18,11.90
2017,05,02,18,19,11.80
2017,05,02,18,21,11.80
2017,05,02,18,22,11.80
2017,05,02,18,23,11.80
2017,05,02,18,24,11.80
2017,05,02,18,26,11.80
2017,05,02,18,27,11.80
2017,05,02,18,28,11.80
2017,05,02,18,29,11.80
2017,05,02,18,30,11.80
2017,05,02,18,31,11.80
2017,05,02,18,32,11.80
2017,05,02,18,33,11.70
2017,05,02,18,34,11.70
2017,05,02,18,35,11.70
2017,05,02,18,36,11.70
2017,05,02,18,37,11.70
2017,05,02,18,38,11.60
2017,05,02,18,39,11.60
2017,05,02,18,40,11.60
2017,05,02,18,41,11.60
2017,05,02,18,42,11.60
2017,05,02,18,43,11.60
2017,05,02,18,44,11.60
2017,05,02,18,45,11.60
2017,05,02,18,46,11.60
2017,05,02,18,47,11.60
2017,05,02,18,48,11.60
2017,05,02,18,49,11.40
2017,05,02,18,50,11.40
2017,05,02,18,51,11.40
2017,05,02,18,52,11.40
2017,05,02,18,53,11.40
2017,05,02,18,54,11.30
2017,05,02,18,55,11.30
2017,05,02,18,56,11.30
2017,05,02,18,57,11.30
2017,05,02,18,58,11.30
2017,05,02,18,59,11.20
2017,05,02,19,00,11.20
2017,05,02,19,01,11.20
2017,05,02,19,02,11.20
2017,05,02,19,03,11.20
2017,05,02,19,04,11.20
2017,05,02,19,05,11.20
2017,05,02,19,06,11.20
2017,05,02,19,07,11.20
2017,05,02,19,08,11.20
2017,05,02,19,09,11.20
2017,05,02,19,10,11.20
2017,05,02,19,11,11.20
2017,05,02,19,12,11.20
2017,05,02,19,13,11.20
2017,05,02,19,14,11.20
2017,05,02,19,15,11.20
2017,05,02,19,16,11.20
2017,05,02,19,17,11.20
2017,05,02,19,18,11.20
2017,05,02,19,19,11.20
2017,05,02,19,20,11.20
2017,05,02,19,21,11.20
2017,05,02,19,22,11.20
2017,05,02,19,23,11.20
2017,05,02,19,24,11.20
2017,05,02,19,25,11.20
2017,05,02,19,26,11.20
2017,05,02,19,27,11.20
2017,05,02,19,28,11.20
2017,05,02,19,29,11.30
2017,05,02,19,30,11.30
2017,05,02,19,31,11.30
2017,05,02,19,32,11.30
2017,05,02,19,33,11.30
2017,05,02,19,34,11.30
2017,05,02,19,35,11.30
2017,05,02,19,36,11.30
2017,05,02,19,37,11.30
2017,05,02,19,38,11.30
2017,05,02,19,39,11.30
2017,05,02,19,40,11.30
2017,05,02,19,41,11.30
2017,05,02,19,42,11.30
2017,05,02,19,43,11.30
2017,05,02,19,44,11.30
2017,05,02,19,45,11.30
2017,05,02,19,46,11.30
2017,05,02,19,47,11.30
2017,05,02,19,49,11.30
2017,05,02,19,51,11.30
2017,05,02,19,52,11.30
2017,05,02,19,53,11.30
2017,05,02,19,54,11.30
2017,05,02,19,56,11.30
2017,05,02,19,57,11.30
2017,05,02,19,58,11.30
2017,05,02,19,59,11.30
2017,05,02,20,01,11.30
2017,05,02,20,02,11.30
2017,05,02,20,03,11.20
2017,05,02,20,04,11.20
2017,05,02,20,06,11.20
2017,05,02,20,07,11.20
2017,05,02,20,08,11.20
2017,05,02,20,09,11.20
2017,05,02,20,11,11.10
2017,05,02,20,12,11.10
2017,05,02,20,13,11.10
2017,05,02,20,14,11.10
2017,05,02,20,16,11.10
2017,05,02,20,17,11.10
2017,05,02,20,18,11.10
2017,05,02,20,19,11.10
2017,05,02,20,21,10.90
2017,05,02,20,22,10.90
2017,05,02,20,23,10.90
2017,05,02,20,24,10.90
2017,05,02,20,26,10.90
2017,05,02,20,27,10.90
2017,05,02,20,28,10.90
2017,05,02,20,29,10.90
2017,05,02,20,31,10.90
2017,05,02,20,32,10.90
2017,05,02,20,33,10.90